Date,TemperatureHighF,TemperatureAvgF,TemperatureLowF,DewpointHighF,DewpointAvgF,DewpointLowF,HumidityHigh,HumidityAvg,HumidityLow,PressureMaxIn,PressureMinIn,WindSpeedMaxMPH,WindSpeedAvgMPH,GustSpeedMaxMPH,PrecipitationSumIn
2013-1-1,40,36,25,28,21,6,68,56,42,29.89,29.70,16,3,21,0.00
2013-1-2,33,27,20,15,10,5,58,48,36,30.03,29.86,13,2,21,0.00
2013-1-3,35,28,16,17,12,5,60,51,32,30.06,29.92,8,2,11,0.00
2013-1-4,41,34,29,22,19,17,65,55,44,29.93,29.67,12,3,18,0.00
2013-1-5,45,36,28,23,20,15,76,53,37,30.15,29.86,11,3,17,0.00
2013-1-6,50,38,30,31,26,23,82,64,42,30.09,29.82,11,2,14,0.00
2013-1-7,48,36,26,31,23,16,82,60,31,30.27,29.91,8,1,14,0.00
2013-1-8,51,36,23,31,25,18,84,66,45,30.29,30.20,11,2,14,0.00
2013-1-9,46,36,26,36,29,21,86,74,59,30.25,29.99,9,2,14,0.00
2013-1-10,45,44,43,32,28,25,59,53,48,30.19,30.08,8,3,17,0.00
2013-1-11,41,38,30,40,33,23,95,83,65,30.41,29.98,4,1,6,0.39
2013-1-12,47,45,41,44,43,40,97,94,89,30.04,29.94,5,1,8,0.02
2013-1-13,48,45,44,47,45,43,98,97,97,30.03,29.88,6,1,8,0.00
2013-1-14,58,49,38,54,42,29,98,79,45,30.17,29.77,9,2,17,0.07
2013-1-15,39,37,34,33,26,22,84,65,53,30.23,30.09,10,2,14,0.11
2013-1-16,34,33,31,31,29,24,89,86,65,30.11,29.66,8,2,11,0.00
2013-1-17,45,38,33,31,26,18,89,64,46,29.97,29.76,13,2,16,0.30
2013-1-18,33,27,23,26,5,-7,97,39,21,30.34,29.89,13,3,17,0.00
2013-1-19,50,40,26,28,20,4,59,45,34,30.25,29.78,17,5,23,0.00
2013-1-20,55,42,29,29,19,2,68,43,19,29.91,29.55,20,5,26,0.00
2013-1-21,30,27,22,14,8,-2,60,44,27,29.96,29.69,13,2,15,0.00
2013-1-22,26,19,12,13,-7,-18,58,31,19,30.07,29.69,14,4,24,0.00
2013-1-23,20,14,9,-4,-13,-18,52,30,20,30.11,30.01,11,2,24,0.00
2013-1-24,25,16,8,-1,-8,-18,59,36,19,30.25,29.99,16,4,28,0.01
2013-1-25,23,17,12,13,-1,-10,75,45,25,30.26,29.93,11,2,17,0.00
2013-1-26,31,19,9,6,1,-6,74,48,22,30.23,29.90,11,2,17,0.00
2013-1-27,36,25,14,8,3,-1,63,39,21,30.39,30.22,9,2,73,0.00
2013-1-28,34,29,22,31,22,8,89,74,52,30.35,29.87,10,2,13,0.17
2013-1-29,53,40,34,42,35,30,93,84,63,30.03,29.85,7,1,10,0.25
2013-1-30,59,47,38,56,45,36,95,93,85,29.96,29.22,13,1,20,0.15
2013-1-31,61,46,29,58,26,2,92,51,22,29.64,28.90,30,8,58,2.44
2013-2-1,34,28,23,9,3,-4,49,35,22,30.09,29.64,12,4,24,0.00
2013-2-2,31,26,18,8,0,-7,53,33,21,30.16,30.01,13,4,24,0.00
2013-2-3,34,29,23,17,7,-2,73,42,24,30.01,29.66,6,3,14,0.02
2013-2-4,32,27,22,16,3,-4,66,37,24,29.84,29.67,12,3,19,0.01
2013-2-5,30,28,25,23,18,7,79,66,43,29.85,29.76,8,2,10,0.00
2013-2-6,42,33,26,26,15,-8,84,52,20,30.22,29.78,11,3,19,0.01
2013-2-7,32,27,21,18,2,-8,60,35,21,30.38,30.20,8,2,11,0.00
2013-2-8,33,31,26,29,25,18,89,79,60,30.20,29.52,15,3,23,0.00
2013-2-9,35,27,20,23,10,-10,84,53,18,30.21,29.62,16,3,23,0.00
2013-2-10,38,25,12,16,4,-3,63,42,21,30.35,30.19,6,1,8,0.11
2013-2-11,41,34,27,38,29,15,92,81,62,30.19,29.53,5,0,7,0.22
2013-2-12,49,40,31,35,25,19,91,56,35,29.83,29.58,12,3,18,0.01
2013-2-13,31,30,29,21,21,20,70,68,65,29.82,29.78,2,0,3,0.00
2013-2-14,48,38,29,30,25,19,85,63,34,29.86,29.59,5,1,8,0.08
2013-2-15,56,42,29,32,27,23,80,59,32,29.87,29.77,8,2,12,0.00
2013-2-16,40,35,30,31,21,8,82,59,39,29.84,29.62,8,3,11,0.06
2013-2-17,32,23,16,7,-7,-13,38,25,20,29.86,29.52,19,7,34,0.15
2013-2-18,37,26,16,10,-3,-12,44,28,20,30.09,29.85,15,4,22,0.00
2013-2-19,46,33,23,38,19,8,86,56,40,30.06,29.61,13,2,18,0.11
2013-2-25,47,38,29,26,23,18,68,54,40,30.10,29.84,7,2,9,0.00
2013-2-26,43,37,29,30,27,22,81,66,57,30.16,29.79,10,3,14,0.17
2013-2-27,46,42,36,43,38,31,90,85,75,29.78,29.36,14,5,25,1.10
2013-2-28,51,42,37,38,32,28,90,69,49,29.49,29.41,3,1,6,0.00
2013-3-1,46,39,34,29,25,19,69,58,42,29.64,29.47,7,3,9,0.00
2013-3-2,40,36,31,23,20,19,67,54,46,29.64,29.56,8,4,12,0.00
2013-3-3,43,32,28,19,13,9,60,47,29,29.63,29.52,10,4,17,0.00
2013-3-4,42,33,27,18,14,8,56,45,33,29.77,29.62,17,6,24,0.00
2013-3-5,50,39,31,24,20,16,57,47,33,29.89,29.76,12,4,17,0.00
2013-3-6,44,40,37,34,28,24,78,62,54,29.85,29.74,24,8,35,0.40
2013-3-7,40,36,32,30,26,21,83,68,52,29.95,29.78,19,5,26,0.11
2013-3-8,42,36,31,31,28,24,85,74,53,30.07,29.87,14,2,20,0.27
2013-3-9,57,44,33,24,18,8,58,38,18,30.19,30.05,15,4,21,0.02
2013-3-10,33,32,32,22,21,20,66,66,59,30.21,30.18,2,0,3,0.00
2013-3-11,51,32,32,46,22,21,83,66,66,30.21,29.91,10,0,17,0.00
2013-3-12,52,50,50,46,46,44,86,84,74,29.92,29.77,11,1,15,0.07
2013-3-13,50,50,50,46,46,46,85,85,85,29.77,29.77,0,0,3,0.07
2013-3-19,51,39,34,46,31,21,86,73,56,30.26,29.86,11,2,15,0.14
2013-3-20,46,37,30,21,15,7,57,41,22,30.03,29.95,14,3,21,0.00
2013-3-21,42,35,31,23,10,0,69,37,21,30.01,29.80,10,3,14,0.00
2013-3-22,43,34,28,18,12,7,54,40,29,30.04,29.89,13,3,19,0.00
2013-3-23,48,39,31,20,14,9,54,37,23,30.11,29.99,13,4,23,0.00
2013-3-24,49,39,28,21,17,13,59,41,27,30.11,29.88,11,3,14,0.00
2013-3-25,44,40,37,33,25,20,80,56,38,29.88,29.63,15,4,23,0.01
2013-3-26,53,42,35,28,24,17,66,50,25,30.03,29.75,11,2,17,0.00
2013-3-27,55,44,35,29,21,14,60,42,21,30.15,30.02,12,4,21,0.00
2013-3-28,52,44,37,31,27,24,65,52,39,30.28,30.12,11,4,17,0.00
2013-3-29,57,47,40,29,25,18,59,43,24,30.31,30.22,11,3,14,0.00
2013-3-30,61,47,33,29,23,14,73,43,17,30.34,30.23,9,2,14,0.00
2013-3-31,56,44,31,43,31,22,92,63,27,30.30,29.85,20,3,27,0.24
2013-4-1,64,48,36,47,34,3,95,64,23,30.08,29.78,15,4,23,0.01
2013-4-2,42,34,30,14,9,1,49,35,22,30.19,30.08,14,4,22,0.00
2013-4-3,48,39,32,11,6,0,41,26,19,30.47,30.24,10,5,13,0.00
2013-4-4,55,42,28,29,16,8,56,36,21,30.55,30.25,10,4,14,0.00
2013-4-5,65,53,40,29,19,12,57,27,16,30.24,29.89,13,5,24,0.02
2013-4-6,56,44,34,28,14,5,65,32,17,30.48,30.17,10,3,18,0.00
2013-4-7,58,48,38,44,34,24,76,61,35,30.48,30.16,17,4,25,0.00
2013-4-8,77,59,42,46,41,31,93,58,21,30.25,30.14,12,2,17,0.00
2013-4-9,84,67,50,52,42,25,89,48,13,30.18,30.08,12,2,21,0.00
2013-4-10,74,63,53,58,51,42,99,67,47,30.15,29.99,11,2,19,0.39
2013-4-11,64,56,47,58,46,38,99,72,50,30.24,29.97,10,4,14,0.02
2013-4-12,47,43,40,42,39,33,99,86,65,30.22,29.90,20,6,34,0.73
2013-4-13,60,49,39,42,37,31,98,68,34,30.13,29.93,10,2,17,0.04
2013-4-23,52,45,39,41,37,31,88,72,64,30.67,30.29,7,3,10,0.00
2013-4-24,70,54,38,51,45,37,97,74,45,30.28,30.00,8,2,13,0.00
2013-4-25,68,57,46,53,29,15,82,39,13,30.44,30.03,9,3,13,0.00
2013-4-26,69,55,39,40,30,16,91,46,13,30.58,30.44,6,2,9,0.00
2013-4-27,70,58,42,36,27,19,71,34,15,30.60,30.45,6,2,9,0.00
2013-4-28,70,57,43,41,35,26,82,47,22,30.49,30.38,10,2,16,0.00
2013-4-29,57,55,53,51,47,36,91,74,50,30.42,30.37,8,1,11,0.02
2013-4-30,68,58,48,47,37,20,82,50,18,30.52,30.38,10,2,13,0.00
2013-5-1,69,56,39,45,37,22,88,53,18,30.67,30.46,11,2,15,0.00
2013-5-2,76,60,42,47,41,25,99,57,20,30.66,30.49,11,1,14,0.00
2013-5-3,67,58,48,44,39,32,84,52,27,30.64,30.53,11,3,18,0.00
2013-5-4,73,56,43,47,43,40,97,66,32,30.56,30.41,11,2,19,0.00
2013-5-5,65,52,41,45,40,34,97,68,34,30.49,30.39,9,2,12,0.00
2013-5-6,72,56,43,55,48,41,97,75,48,30.45,30.32,10,2,13,0.00
2013-5-7,76,62,48,59,54,47,99,75,52,30.35,30.26,11,1,15,0.00
2013-5-8,65,61,54,63,59,53,99,94,85,30.29,30.15,12,2,17,1.41
2013-5-9,73,60,52,62,56,52,99,89,55,30.19,30.06,5,1,8,0.67
2013-5-10,83,67,51,60,55,51,99,71,36,30.18,30.07,11,1,14,0.00
2013-5-11,71,65,61,65,62,58,99,92,80,30.09,29.87,12,2,14,0.38
2013-5-12,71,62,50,60,42,21,99,56,18,30.11,29.83,9,2,16,0.02
2013-5-13,59,50,39,35,28,20,79,44,23,30.25,30.10,8,2,16,0.00
2013-5-14,63,51,36,37,29,17,89,49,17,30.29,30.19,7,2,11,0.00
2013-5-15,69,56,40,56,47,37,92,72,45,30.24,29.84,11,2,14,0.00
2013-5-16,82,68,53,58,51,40,98,61,23,30.00,29.89,8,1,11,0.00
2013-5-17,76,66,56,48,41,36,71,43,25,30.38,30.01,8,2,11,0.00
2013-5-18,68,59,48,59,51,46,97,78,45,30.48,30.38,4,1,8,0.06
2013-5-19,59,57,56,58,57,54,99,98,87,30.50,30.36,4,1,6,0.26
2013-5-20,83,72,58,67,64,57,99,78,55,30.35,30.13,8,1,11,0.01
2013-5-21,90,76,62,70,66,61,99,74,47,30.16,30.00,11,2,17,0.00
2013-5-22,76,74,71,68,68,67,89,81,74,30.05,30.02,3,1,8,0.00
2013-5-23,79,69,66,72,67,65,99,94,71,30.06,29.93,5,1,8,1.69
2013-5-24,66,56,45,66,54,42,99,92,78,30.13,29.85,8,2,17,0.41
2013-5-25,53,46,44,47,44,43,96,93,76,30.12,30.07,8,2,14,0.40
2013-5-26,69,57,47,41,37,32,73,51,27,30.38,30.11,10,3,14,0.00
2013-5-27,78,62,42,46,38,28,88,48,17,30.41,30.28,4,1,7,0.00
2013-5-28,69,58,50,58,52,45,99,83,46,30.40,30.31,2,1,4,0.47
2013-5-29,86,70,58,68,63,58,99,81,52,30.32,30.17,6,1,11,0.01
2013-5-30,95,82,67,69,65,62,95,61,35,30.30,30.22,4,1,7,0.00
2013-5-31,94,81,67,70,66,58,95,62,35,30.31,30.16,7,1,10,0.00
2013-6-1,94,86,67,70,67,62,93,54,42,30.19,30.07,11,2,15,0.00
2013-6-2,90,80,72,72,68,65,96,68,47,30.09,29.94,11,3,17,0.08
2013-6-3,83,73,67,72,65,49,97,77,48,30.08,29.98,11,1,17,0.15
2013-6-4,79,67,56,49,43,37,61,43,23,30.30,30.07,8,2,11,0.00
2013-6-5,78,65,50,50,46,42,82,52,33,30.40,30.29,11,2,15,0.00
2013-6-6,72,63,53,60,55,47,96,77,42,30.33,30.21,11,1,14,0.18
2013-6-7,62,60,59,61,60,58,99,98,96,30.20,29.83,10,3,14,2.48
2013-6-8,81,68,57,64,60,56,99,78,51,30.23,29.78,9,2,18,0.14
2013-6-9,86,72,58,64,59,55,98,68,39,30.35,30.23,6,1,10,0.00
2013-6-10,71,65,62,67,63,60,98,92,83,30.35,30.01,8,2,14,0.91
2013-6-11,83,71,62,71,64,56,99,79,54,30.01,29.79,8,2,13,0.13
2013-6-12,79,71,61,59,54,52,84,58,41,30.03,29.89,10,2,17,0.00
2013-6-13,63,60,56,61,58,54,97,93,85,30.03,29.67,11,2,20,0.54
2013-6-14,77,62,53,57,54,49,97,75,46,30.06,29.72,10,2,18,0.41
2013-6-15,84,72,59,58,54,44,90,57,28,30.19,30.06,8,1,11,0.00
2013-6-16,83,70,56,65,58,50,95,67,38,30.17,29.93,14,1,23,0.00
2013-6-17,90,76,64,68,63,59,98,68,40,30.09,30.00,10,1,15,0.00
2013-6-18,86,70,63,68,64,56,97,82,50,30.09,30.00,8,1,15,0.37
2013-6-19,80,68,58,61,52,40,95,63,27,30.35,30.07,12,2,15,0.01
2013-6-20,83,70,55,59,55,48,97,64,32,30.45,30.35,9,2,13,0.00
2013-6-21,68,60,58,56,54,52,84,81,65,30.47,30.44,2,0,4,0.00
2013-6-22,59,59,59,54,54,54,83,83,83,30.47,30.47,0,0,0,0.00
2013-6-23,59,59,59,54,54,54,83,83,83,30.47,30.47,0,0,0,0.00
2013-6-24,59,59,59,54,54,54,83,83,83,30.47,30.47,0,0,0,0.00
2013-6-25,59,59,59,54,54,54,83,83,83,30.47,30.47,0,0,0,0.00
2013-6-26,59,59,59,54,54,54,83,83,83,30.47,30.47,0,0,0,0.00
2013-6-27,59,59,59,54,54,54,83,83,83,30.47,30.47,0,0,0,0.00
2013-6-28,89,75,59,74,63,53,90,69,47,30.47,29.85,10,2,15,0.02
2013-6-29,88,77,69,70,67,62,93,72,43,30.09,29.87,11,2,14,0.00
2013-6-30,87,76,69,75,72,68,97,86,64,30.30,30.09,11,1,14,0.00
2013-7-1,78,75,72,76,73,70,97,94,87,30.44,30.28,9,1,11,1.04
2013-7-2,85,78,74,77,73,70,97,84,69,30.56,30.43,11,2,15,0.04
2013-7-3,86,79,73,77,72,70,94,82,65,30.64,30.55,9,2,16,0.02
2013-7-4,93,83,74,76,73,70,98,73,49,30.64,30.53,9,2,14,0.01
2013-7-5,95,85,75,75,71,67,93,66,44,30.60,30.47,9,2,13,0.00
2013-7-6,95,86,77,75,72,70,87,66,45,30.53,30.41,7,1,11,0.00
2013-7-7,98,85,74,76,73,69,95,69,42,30.45,30.28,8,1,14,0.05
2013-7-8,93,81,70,72,68,64,95,68,43,30.43,30.34,7,1,8,0.00
2013-7-9,93,83,71,71,69,65,91,64,45,30.47,29.43,7,1,11,1.18
2013-7-10,88,82,76,78,72,69,89,73,56,29.92,29.69,12,2,16,0.07
2013-7-11,89,80,72,75,70,64,88,71,48,29.83,29.70,5,1,8,0.01
2013-7-12,80,74,68,71,66,62,95,76,63,30.01,29.82,13,3,16,0.11
2013-7-13,82,73,67,75,71,66,98,92,77,30.18,30.01,9,2,13,0.06
2013-7-14,95,83,73,77,73,69,99,73,46,30.24,30.12,5,1,8,0.01
2013-7-15,99,86,78,76,73,69,87,66,42,30.15,30.03,8,1,11,0.00
2013-7-16,96,85,72,74,69,64,91,61,37,30.11,30.02,9,2,14,0.00
2013-7-17,100,86,74,74,71,64,91,62,33,30.10,29.95,7,1,8,0.00
2013-7-18,101,89,77,76,73,69,88,62,38,29.97,29.84,5,1,8,0.00
2013-7-19,99,89,78,76,74,71,88,63,42,29.86,29.67,11,2,17,0.00
2013-7-20,95,86,80,77,71,66,77,63,44,29.74,29.61,11,2,15,0.00
2013-7-21,90,81,75,72,65,61,82,60,41,29.86,29.73,9,1,13,0.00
2013-7-22,86,76,72,76,72,64,99,85,64,29.86,29.70,8,1,14,0.59
2013-7-23,90,79,73,75,73,69,99,83,52,29.70,29.44,8,1,11,0.52
2013-7-24,85,76,68,73,65,52,97,69,46,29.84,29.51,10,2,19,0.00
2013-7-25,68,66,62,60,54,48,77,67,57,29.97,29.84,12,3,19,0.00
2013-7-26,87,74,66,64,60,59,81,64,43,29.94,29.88,9,2,13,0.00
2013-7-27,85,74,63,66,62,60,97,70,46,29.95,29.85,9,1,14,0.00
2013-7-28,80,72,66,71,67,63,98,85,62,29.89,29.82,10,1,15,0.19
2013-7-29,88,76,68,72,64,51,99,70,34,30.00,29.85,7,1,11,0.01
2013-7-30,83,72,59,61,58,55,90,62,41,30.07,30.00,8,1,10,0.00
2013-7-31,86,72,60,63,60,58,96,68,43,30.06,29.93,5,1,8,0.00
2013-8-1,76,69,67,68,66,62,99,91,65,29.94,29.73,10,1,16,0.56
2013-8-2,87,75,64,70,64,59,99,72,40,29.81,29.69,8,1,13,0.00
2013-8-3,81,71,66,69,64,59,95,81,56,29.81,29.73,8,1,12,0.08
2013-8-4,83,72,61,64,57,51,95,62,38,29.87,29.75,8,1,13,0.00
2013-8-5,82,70,58,56,50,41,81,53,28,29.96,29.86,11,1,16,0.00
2013-8-6,82,70,56,61,56,51,95,64,35,30.02,29.93,11,1,15,0.00
2013-8-7,79,72,65,68,64,59,90,77,61,30.04,29.96,13,2,18,0.01
2013-8-8,83,74,70,76,71,68,97,90,71,29.97,29.90,13,1,17,0.32
2013-8-9,88,77,72,76,74,71,99,91,62,29.92,29.68,9,2,12,0.37
2013-8-10,86,75,65,72,64,56,99,70,41,29.95,29.75,8,1,12,0.01
2013-8-11,83,71,58,65,58,53,91,66,41,30.03,29.92,5,1,9,0.00
2013-8-12,87,74,67,69,64,56,98,75,38,29.93,29.82,4,0,8,0.39
2013-8-13,79,72,68,71,68,65,98,88,65,29.83,29.59,7,1,13,0.84
2013-8-14,76,69,57,66,53,48,99,58,44,29.95,29.65,10,2,16,0.00
2013-8-15,81,66,52,56,52,43,96,64,30,30.04,29.94,5,1,11,0.00
2013-8-16,85,69,56,61,55,46,98,66,30,30.11,30.02,6,0,7,0.00
2013-8-17,85,71,57,61,58,53,97,67,35,30.18,30.10,7,1,10,0.00
2013-8-18,78,69,63,67,61,58,93,76,55,30.16,30.02,5,0,8,0.00
2013-8-19,83,71,61,66,62,60,97,76,49,30.03,29.93,4,1,7,0.00
2013-8-20,91,76,62,69,64,59,98,71,36,30.03,29.94,7,1,9,0.00
2013-8-21,92,77,64,68,64,58,97,67,35,30.08,29.95,6,1,8,0.00
2013-8-22,76,72,68,72,70,65,97,92,85,29.97,29.77,6,1,7,0.31
2013-8-23,84,74,68,70,61,52,98,66,37,30.01,29.77,9,2,14,0.00
2013-8-24,82,70,60,58,53,49,87,56,33,30.25,30.01,8,2,12,0.00
2013-8-25,86,70,55,61,55,48,98,65,28,30.30,30.12,7,1,9,0.00
2013-8-26,80,73,68,70,62,56,95,70,62,30.13,29.80,5,1,9,0.09
2013-8-27,88,77,70,71,69,66,97,78,50,29.81,29.71,10,2,15,0.01
2013-8-28,89,74,68,73,70,66,98,88,52,29.80,29.75,13,1,18,0.07
2013-8-29,81,73,69,70,68,64,99,85,63,29.93,29.79,8,1,11,0.01
2013-8-30,88,77,69,72,68,65,93,75,49,29.93,29.75,5,1,10,0.00
2013-8-31,89,79,73,74,71,70,89,77,57,29.76,29.68,9,2,17,0.00
2013-9-1,85,78,72,75,73,70,96,85,68,29.77,29.69,5,1,8,0.22
2013-9-2,82,76,72,77,73,70,99,91,71,29.71,29.60,5,0,8,0.21
2013-9-3,83,74,64,73,63,55,98,73,42,29.79,29.60,6,1,11,0.06
2013-9-4,85,71,60,60,58,52,95,66,37,29.90,29.78,7,1,12,0.00
2013-9-5,79,68,58,62,53,38,93,62,25,30.06,29.81,9,1,17,0.00
2013-9-6,74,61,52,49,44,38,85,56,29,30.16,30.03,8,1,13,0.00
2013-9-7,81,65,48,56,49,40,98,62,24,30.03,29.79,8,1,13,0.00
2013-9-8,84,72,60,64,54,40,79,56,25,29.99,29.72,8,2,17,0.00
2013-9-9,74,64,52,60,49,42,81,60,35,30.15,29.98,10,2,14,0.00
2013-9-10,88,76,66,73,68,60,97,78,59,30.06,29.94,12,2,17,0.08
2013-9-11,96,84,72,76,73,69,96,71,47,30.01,29.86,10,1,14,0.00
2013-9-12,88,76,68,75,71,68,99,84,60,29.89,29.58,13,1,19,1.70
2013-9-13,78,68,58,68,60,49,99,78,49,29.75,29.52,8,1,14,0.06
2013-9-14,68,59,50,50,47,45,87,66,47,30.03,29.75,8,1,14,0.00
2013-9-15,73,58,44,54,47,40,99,70,32,30.11,29.98,6,1,8,0.00
2013-9-16,75,62,55,59,54,45,94,75,43,30.15,29.91,11,1,18,0.01
2013-9-17,66,56,48,47,41,37,92,59,38,30.33,30.16,12,3,18,0.00
2013-9-18,74,58,42,51,45,38,99,70,29,30.25,30.08,7,1,11,0.00
2013-9-19,79,61,45,54,50,44,99,71,33,30.09,29.96,7,1,9,0.00
2013-9-20,81,64,49,60,55,49,99,75,40,29.99,29.88,9,1,14,0.00
2013-9-21,65,62,52,63,59,52,99,91,88,29.92,29.82,2,0,3,0.00
2013-9-22,65,65,65,62,62,62,88,88,88,29.82,29.82,1,1,2,0.00
2013-9-23,65,65,65,62,62,62,88,88,88,29.82,29.82,1,1,2,0.00
2013-9-24,65,65,65,62,62,62,88,88,88,29.82,29.82,1,1,2,0.00
2013-9-25,65,65,65,62,62,62,88,88,88,29.82,29.82,1,1,2,0.00
2013-9-26,65,65,65,62,62,62,88,88,88,29.82,29.82,1,1,2,0.00
2013-9-27,65,65,65,62,62,62,88,88,88,29.82,29.82,1,1,2,0.00
2013-9-28,65,65,65,62,62,62,88,88,88,29.82,29.82,1,1,2,0.00
2013-9-29,65,65,65,62,62,62,88,88,88,29.82,29.82,1,1,2,0.00
2013-9-30,65,65,65,62,62,62,88,88,88,29.82,29.82,1,1,2,0.00
2013-10-1,65,65,65,62,62,62,88,88,88,29.82,29.82,1,1,2,0.00
2013-10-2,65,65,65,62,62,62,88,88,88,29.82,29.82,1,1,2,0.00
2013-10-3,65,65,65,62,62,62,88,88,88,29.82,29.82,1,1,2,0.00
2013-10-4,65,65,65,62,62,62,88,88,88,29.82,29.82,1,1,2,0.00
2013-10-5,65,65,65,62,62,62,88,88,88,29.82,29.82,1,1,2,0.00
2013-10-6,65,65,65,62,62,62,88,88,88,29.82,29.82,1,1,2,0.00
2013-10-7,65,65,65,62,62,62,88,88,88,29.82,29.82,1,1,2,0.00
2013-10-8,65,65,65,62,62,62,88,88,88,29.82,29.82,1,1,2,0.00
2013-10-9,65,65,65,62,62,62,88,88,88,29.82,29.82,1,1,2,0.00
2013-10-14,67,57,50,52,49,46,97,78,47,30.26,30.14,3,0,4,0.00
2013-10-15,74,58,47,55,51,47,99,79,44,30.16,30.02,4,1,8,0.00
2013-10-16,66,59,51,59,54,50,95,85,70,30.01,29.81,4,1,6,0.00
2013-10-17,77,66,61,64,60,58,98,83,52,29.81,29.58,8,2,14,0.01
2013-10-18,71,62,52,63,48,41,92,62,35,29.86,29.56,5,2,14,0.01
2013-10-19,64,54,42,53,45,41,98,75,44,29.88,29.64,7,1,10,0.02
2013-10-20,65,53,43,54,39,32,99,63,31,29.95,29.64,4,1,8,0.01
2013-10-21,70,53,38,45,39,30,99,67,24,30.04,29.87,11,1,17,0.00
2013-10-22,66,53,43,52,46,40,98,79,55,29.87,29.63,5,1,10,0.00
2013-10-23,57,46,38,45,39,34,99,77,45,29.71,29.50,8,1,11,0.00
2013-10-24,57,45,36,36,30,23,89,60,29,29.89,29.63,11,2,15,0.00
2013-10-25,54,42,32,35,30,27,88,66,36,30.12,29.89,11,1,14,0.00
2013-10-26,56,44,31,37,29,24,95,61,31,30.11,29.78,15,2,25,0.05
2013-10-27,60,50,39,35,32,26,79,53,29,30.01,29.74,11,1,14,0.00
2013-10-28,64,47,32,37,32,29,94,62,27,30.22,30.01,8,1,16,0.00
2013-10-29,56,46,38,36,31,25,86,57,34,30.32,30.21,7,1,9,0.00
2013-10-30,58,47,38,49,42,34,98,81,63,30.24,30.07,4,0,5,0.00
2013-10-31,65,54,41,60,52,40,99,92,74,30.12,29.68,10,1,16,0.01
2013-11-1,72,65,53,64,57,49,93,78,48,29.68,29.43,15,4,26,0.24
2013-11-2,68,56,48,53,46,38,99,73,40,29.68,29.50,8,1,11,0.00
2013-11-3,52,44,35,43,32,15,87,63,43,30.35,29.67,13,2,18,0.00
2013-11-4,48,37,31,26,16,7,72,44,21,30.55,30.34,13,2,18,0.00
2013-11-5,55,45,34,41,34,25,87,68,53,30.55,30.37,8,1,11,0.00
2013-11-6,60,51,39,51,44,38,97,79,56,30.38,29.96,11,2,14,0.00
2013-11-7,62,52,36,58,48,31,95,84,60,29.96,29.62,8,2,13,0.12
2013-11-8,51,41,33,33,28,22,92,61,35,30.09,29.81,11,2,17,0.00
2013-11-9,51,42,32,33,26,21,77,55,32,30.17,29.87,9,2,12,0.00
2013-11-10,62,48,38,40,33,27,85,58,27,29.93,29.68,14,3,26,0.02
2013-11-11,54,48,39,33,28,24,57,46,33,30.08,29.84,11,3,17,0.00
2013-11-12,51,38,30,36,22,11,84,52,34,30.17,29.81,11,3,20,0.01
2013-11-13,41,32,27,17,11,4,59,43,22,30.25,30.15,11,2,16,0.00
2013-11-14,54,40,27,20,15,7,66,40,18,30.14,30.02,11,2,17,0.00
2013-11-15,58,41,28,28,22,15,73,49,20,30.13,30.03,8,1,11,0.00
2013-11-16,63,48,35,46,39,25,96,73,44,30.21,30.11,9,1,14,0.01
2013-11-17,60,53,42,59,52,41,99,96,91,30.17,29.67,7,1,11,0.00
2013-11-18,67,60,50,61,40,23,98,55,22,29.67,29.47,15,4,21,0.17
2013-11-19,50,43,34,30,24,19,53,47,36,30.23,29.66,16,5,24,0.00
2013-11-20,45,35,30,19,13,4,63,42,20,30.49,30.23,11,3,21,0.00
2013-11-21,51,40,25,39,28,17,76,64,45,30.50,30.27,8,1,11,0.00
2013-11-22,60,51,45,51,46,39,98,83,70,30.27,29.78,7,1,11,0.05
2013-11-23,54,42,29,49,22,-2,86,47,23,29.93,29.77,17,5,30,0.02
2013-11-24,30,25,22,4,-3,-9,42,30,19,30.24,29.89,18,6,30,0.01
2013-11-25,37,28,18,10,6,2,58,40,23,30.36,30.20,11,2,16,0.00
2013-11-26,45,36,32,44,23,10,99,63,39,30.21,29.67,11,2,15,0.53
2013-11-27,61,46,33,60,42,16,99,88,49,29.67,29.21,21,4,30,1.87
2013-11-28,36,31,26,17,9,-1,62,42,22,30.35,29.61,14,4,23,0.00
2013-11-29,41,32,27,21,16,7,74,53,37,30.62,30.34,8,2,12,0.00
2013-11-30,36,30,22,24,14,7,65,52,35,30.65,30.26,8,1,10,0.00
2013-12-1,50,40,31,35,30,24,83,67,48,30.26,29.89,5,1,8,0.00
2013-12-2,47,38,33,38,33,29,91,81,68,29.90,29.77,4,0,5,0.00
2013-12-3,55,39,30,40,33,28,97,80,49,29.89,29.75,6,1,8,0.00
2013-12-4,52,42,31,40,35,29,96,77,56,30.02,29.89,4,1,7,0.00
2013-12-5,53,50,46,53,48,40,99,96,78,30.01,29.81,4,0,7,0.04
2013-12-6,55,46,35,54,45,32,99,95,85,30.05,29.75,8,2,14,0.78
2013-12-7,42,36,30,33,24,12,91,65,43,30.40,29.98,9,2,15,0.06
2013-12-8,32,29,26,26,16,9,88,57,44,30.48,30.27,8,2,11,0.00
2013-12-9,37,33,29,35,31,26,94,92,88,30.27,29.84,12,1,15,0.09
2013-12-10,34,31,24,32,28,19,95,90,78,29.99,29.74,5,1,7,0.01
2013-12-11,35,28,23,19,14,10,78,56,39,30.19,29.99,11,3,17,0.01
2013-12-12,29,24,20,11,1,-6,55,36,23,30.23,30.02,9,3,15,0.00
2013-12-13,37,27,18,16,6,-3,63,42,29,30.21,29.99,12,3,17,0.00
2013-12-14,28,22,18,23,14,10,85,72,53,30.38,29.71,13,4,19,0.00
2013-12-15,38,33,27,34,26,18,93,79,57,29.70,29.40,11,1,15,0.33
2013-12-16,32,26,16,20,6,-3,66,44,25,30.11,29.69,11,3,17,0.00
2013-12-17,25,22,15,20,15,6,81,74,61,30.11,29.82,7,2,11,0.00
2013-12-18,39,28,17,21,16,10,77,61,41,30.04,29.80,11,2,16,0.08
2013-12-19,46,33,20,26,20,12,75,59,37,30.05,29.89,11,1,14,0.09
2013-12-20,51,41,32,32,29,25,83,63,43,29.98,29.84,7,1,9,0.00
2013-12-21,61,51,39,51,42,32,91,73,55,29.88,29.78,11,2,15,0.00
2013-12-22,69,64,54,62,57,49,93,78,66,29.85,29.67,17,4,26,0.00
2013-12-23,61,53,40,58,50,29,98,89,64,30.05,29.79,12,2,17,0.48
2013-12-24,42,34,24,29,18,1,84,52,32,30.23,29.98,16,4,21,0.00
2013-12-25,31,24,17,10,1,-4,53,38,25,30.41,30.22,11,2,17,0.00
2013-12-26,36,30,25,24,18,10,75,62,52,30.31,30.03,9,1,12,0.00
2013-12-27,40,32,24,21,18,15,74,58,40,30.22,30.13,10,1,13,0.00
2013-12-28,54,38,25,26,21,17,76,53,24,30.17,29.95,9,1,21,0.00
2013-12-29,43,38,33,41,33,23,98,81,63,29.95,29.32,11,2,14,0.69
2013-12-30,42,35,21,37,23,3,94,65,36,30.07,29.57,14,3,21,0.00
2013-12-31,31,24,18,22,7,1,74,47,33,30.15,29.93,11,2,17,0.00
2014-1-1,32,27,18,16,9,-1,61,47,33,30.28,30.14,7,2,10,0.00
2014-1-2,30,22,11,18,13,4,76,68,55,30.13,29.58,12,5,21,0.00